OK2ARM-12 Weather Reports


Display with metric or nautical units.
time (UTC)temp
F
wind
direction
speed
MPH
gust
MPH
rain 1hr
in
rain 24hr
in
rain mn
in
humidity
%
barometer
mb
20260504110232 63 0.0 0.0 0.00 0.00 0.00 48 1015.2
20260504100231 62 0.0 0.0 0.00 0.00 0.00 49 1015.8
20260504080744 58 0.0 0.0 0.00 0.00 0.00 55 1015.6
20260504045032 50 0.0 0.0 0.00 0.00 0.00 59 1014.9
20260504044032 50 0.0 0.0 0.00 0.00 0.00 59 1014.8
20260504043032 50 0.0 0.0 0.00 0.00 0.00 59 1014.9
20260504042032 50 0.0 0.0 0.00 0.00 0.00 58 1014.8
20260504041032 50 0.0 0.0 0.00 0.00 0.00 58 1014.7
20260504040032 51 0.0 0.0 0.00 0.00 0.00 58 1015.0
20260504035032 50 0.0 0.0 0.00 0.00 0.00 57 1014.8
20260504034032 50 0.0 0.0 0.00 0.00 0.00 56 1014.9
20260504033032 50 0.0 0.0 0.00 0.00 0.00 55 1014.9
20260504032032 51 0.0 0.0 0.00 0.00 0.00 54 1014.7
20260504031033 51 0.0 0.0 0.00 0.00 0.00 53 1014.7
20260504030032 52 0.0 0.0 0.00 0.00 0.00 52 1014.9
20260504025033 52 0.0 0.0 0.00 0.00 0.00 52 1015.0
20260504022809 53 0.0 0.0 0.00 0.00 0.00 50 1015.1
20260504021808 52 0.0 0.0 0.00 0.00 0.00 51 1015.0
20260504020808 53 0.0 0.0 0.00 0.00 0.00 50 1014.9
20260504015808 53 0.0 0.0 0.00 0.00 0.00 49 1014.9
20260504014808 53 0.0 0.0 0.00 0.00 0.00 49 1014.9
20260504013809 53 0.0 0.0 0.00 0.00 0.00 48 1014.9
20260504012808 53 0.0 0.0 0.00 0.00 0.00 47 1014.8
20260504005322 54 0.0 0.0 0.00 0.00 0.00 46 1014.8
20260504004322 54 0.0 0.0 0.00 0.00 0.00 46 1014.9
20260504003322 54 0.0 0.0 0.00 0.00 0.00 45 1015.0
20260504002322 54 0.0 0.0 0.00 0.00 0.00 45 1014.9
20260504001322 54 0.0 0.0 0.00 0.00 0.00 44 1015.0
20260504000322 54 0.0 0.0 0.00 0.00 0.00 44 1015.1
20260503235322 55 0.0 0.0 0.00 0.00 0.00 43 1015.1
20260503234322 55 0.0 0.0 0.00 0.00 0.00 43 1015.2
20260503233321 55 0.0 0.0 0.00 0.00 0.00 43 1015.2
20260503232322 56 0.0 0.0 0.00 0.00 0.00 43 1015.3
20260503231322 56 0.0 0.0 0.00 0.00 0.00 42 1015.3
20260503230321 56 0.0 0.0 0.00 0.00 0.00 42 1015.4
20260503225321 56 0.0 0.0 0.00 0.00 0.00 42 1015.5
20260503224322 56 0.0 0.0 0.00 0.00 0.00 42 1015.5
20260503223323 56 0.0 0.0 0.00 0.00 0.00 42 1015.5
20260503222322 56 0.0 0.0 0.00 0.00 0.00 41 1015.6
20260503221322 56 0.0 0.0 0.00 0.00 0.00 41 1015.7
20260503220322 57 0.0 0.0 0.00 0.00 0.00 41 1015.8
20260503215322 57 0.0 0.0 0.00 0.00 0.00 41 1015.8
20260503214323 57 0.0 0.0 0.00 0.00 0.00 40 1015.9
20260503213322 57 0.0 0.0 0.00 0.00 0.00 41 1015.9
20260503212322 57 0.0 0.0 0.00 0.00 0.00 41 1015.9
20260503211322 58 0.0 0.0 0.00 0.00 0.00 41 1015.9
20260503210322 58 0.0 0.0 0.00 0.00 0.00 41 1015.9
20260503205322 58 0.0 0.0 0.00 0.00 0.00 41 1015.8
20260503203058 58 0.0 0.0 0.00 0.00 0.00 44 1015.9
20260503200834 59 0.0 0.0 0.00 0.00 0.00 44 1016.0
20260503195835 60 0.0 0.0 0.00 0.00 0.00 43 1016.0
20260503194835 60 0.0 0.0 0.00 0.00 0.00 42 1015.9
20260503192610 60 0.0 0.0 0.00 0.00 0.00 41 1015.9
20260503191610 61 0.0 0.0 0.00 0.00 0.00 41 1015.9
20260503190611 61 0.0 0.0 0.00 0.00 0.00 41 1015.9
20260503185611 61 0.0 0.0 0.00 0.00 0.00 41 1015.9
20260503184611 62 0.0 0.0 0.00 0.00 0.00 40 1015.8
20260503183610 62 0.0 0.0 0.00 0.00 0.00 40 1015.8
20260503182611 62 0.0 0.0 0.00 0.00 0.00 39 1015.9
20260503181611 62 0.0 0.0 0.00 0.00 0.00 38 1015.8
20260503180611 63 0.0 0.0 0.00 0.00 0.00 38 1015.8
20260503175610 63 0.0 0.0 0.00 0.00 0.00 37 1015.8
20260503174610 63 0.0 0.0 0.00 0.00 0.00 36 1015.8
20260503130925 68 0.0 0.0 0.00 0.00 0.00 31 1017.3